Flag for Afghanistan Weather past 2 weeks in Herat, Afghanistan

Now
39 °F

Clear.


Feels Like: 39 °F
Forecast: 46 / 63 °F
Wind: 2 mph from Northeast

Location: Herat Airport

Current Time: Mar 29, 2015 at 6:23:33 AM

Latest Report: Mar 29, 2015 at 5:24 AM


Visibility: 10 mi

Pressure: 30.15 "Hg

Humidity: 87%

Dew point: 36 °F

Location of HeratLocation

Historic Weather in Herat — Graph

°F

Herat temperature yesterday

Maximum temperature yesterday: 46 °F (at 6:24 PM)
Minimum temperature yesterday: 41 °F (at 8:25 AM)
Average temperature yesterday: 43 °F

Past Weeks' High & Low Weather Summary

 TemperatureHumidityPressure
High81 °F (Mar 23, 12:25 PM)94% (Mar 18, 8:24 AM)30.27 "Hg (Mar 18, 8:24 AM)
Low39 °F (Mar 29, 4:24 AM)21% (Mar 23, 3:25 PM)29.77 "Hg (Mar 23, 2:24 PM)
Average57 °F60%30.12 "Hg
* Reported Mar 14 5:25 AM — Mar 29 5:24 AM, Herat, Weather by CustomWeather, © 2015

Note: Actual official high and low records may vary slightly from our data, if they occured in-between our weather recording intervals... More about our weather records

Advertising

Herat weather history for previous 24 hours

 ConditionsComfort  
Time TempWeatherWind HumidityBarometerVisibility
5:24 AM
Sun, Mar 29
39 °FClear.2 mph87%30.15 "Hg10 mi
4:24 AM39 °FClear.1 mph87%30.15 "Hg10 mi
3:24 AM43 °FClear.2 mph81%30.15 "Hg10 mi
2:24 AM43 °FClear.3 mph81%30.15 "Hg10 mi
1:24 AM43 °FClear.3 mph87%30.15 "Hg10 mi
12:24 AM43 °FClear.3 mph87%30.15 "Hg10 mi
11:24 PM
Sat, Mar 28
43 °FClear.1 mph87%30.15 "Hg10 mi
10:24 PM45 °FClear.3 mph87%30.15 "Hg10 mi
9:24 PM45 °FClear.5 mph81%30.15 "Hg10 mi
8:24 PM46 °FPassing clouds.2 mph82%30.12 "HgN/A
7:25 PM46 °FPassing clouds.3 mph82%30.12 "HgN/A
6:24 PM46 °FPartly sunny.6 mph82%30.12 "Hg5 mi
5:25 PM45 °FLight rain. Mostly cloudy.6 mph87%30.09 "Hg5 mi
4:24 PM43 °FLight rain. Mostly cloudy.7 mph93%30.09 "Hg5 mi
3:24 PM43 °FLight rain. Mostly cloudy.7 mph93%30.09 "Hg5 mi
2:25 PM43 °FLight rain. Mostly cloudy.8 mph93%30.09 "Hg4 mi
1:25 PM43 °FLight rain. Fog.10 mph93%30.12 "Hg3 mi
12:25 PM43 °FRain. Fog.6 mph93%30.12 "Hg2 mi
11:24 AM43 °FLight rain. Fog.7 mph93%30.12 "Hg3 mi
10:25 AM43 °FLight rain. Fog.6 mph87%30.12 "Hg3 mi
9:24 AM43 °FLight rain. Fog.6 mph87%30.12 "Hg3 mi
8:25 AM41 °FLight rain. Mostly cloudy.3 mph93%30.12 "Hg4 mi
7:24 AM43 °FLight rain. Fog.3 mph87%30.12 "Hg3 mi
6:25 AM43 °FMostly cloudy.6 mph81%30.12 "Hg5 mi
Weather by CustomWeather, © 2015

See weather overviewHow to use our weather pages